Time,TemperatureF,DewpointF,PressureIn,WindDirection,WindDirectionDegrees,WindSpeedMPH,WindSpeedGustMPH,Humidity,HourlyPrecipIn,Conditions,Clouds,dailyrainin,SoftwareType,DateUTC
2013-02-03 00:00:00,20.5,19.2,29.96,NE,40,3.0,6.0,95,0.00,,,0.00,meteohub,2013-02-03 05:00:00,
2013-02-03 00:01:00,20.5,19.2,29.96,NE,40,3.0,6.0,95,0.00,,,0.00,meteohub,2013-02-03 05:01:00,
2013-02-03 00:03:00,20.5,19.2,29.96,NE,40,4.0,6.0,95,0.00,,,0.00,meteohub,2013-02-03 05:03:00,
2013-02-03 00:08:00,20.5,19.2,29.96,NE,40,0.0,6.0,95,0.00,,,0.00,meteohub,2013-02-03 05:08:00,
2013-02-03 00:14:00,20.5,19.2,29.96,NE,41,0.0,6.0,95,0.00,,,0.00,meteohub,2013-02-03 05:14:00,
2013-02-03 00:19:00,20.5,19.2,29.96,NE,41,0.0,4.0,95,0.00,,,0.00,meteohub,2013-02-03 05:19:00,
2013-02-03 00:24:00,20.5,19.2,29.96,NE,41,4.0,4.0,95,0.00,,,0.00,meteohub,2013-02-03 05:24:00,
2013-02-03 00:29:00,20.5,19.2,29.95,NE,41,3.0,4.0,95,0.00,,,0.00,meteohub,2013-02-03 05:29:00,
2013-02-03 00:34:00,20.5,19.6,29.96,NE,42,4.0,5.0,96,0.00,,,0.00,meteohub,2013-02-03 05:34:00,
2013-02-03 00:39:00,20.5,19.6,29.95,NE,42,3.0,5.0,96,0.00,,,0.00,meteohub,2013-02-03 05:39:00,
2013-02-03 00:44:00,20.5,19.6,29.95,NE,42,4.0,5.0,96,0.00,,,0.00,meteohub,2013-02-03 05:44:00,
2013-02-03 00:49:00,20.5,19.6,29.95,NE,42,3.0,5.0,96,0.00,,,0.00,meteohub,2013-02-03 05:49:00,
2013-02-03 00:54:00,20.5,19.6,29.95,NE,42,3.0,5.0,96,0.00,,,0.00,meteohub,2013-02-03 05:54:00,
2013-02-03 00:59:00,20.5,19.6,29.95,NE,42,3.0,5.0,96,0.00,,,0.00,meteohub,2013-02-03 05:59:00,
2013-02-03 01:04:00,20.5,19.6,29.95,NE,42,4.0,4.0,96,0.00,,,0.00,meteohub,2013-02-03 06:04:00,
2013-02-03 01:09:00,20.3,19.4,29.94,NE,42,2.0,6.0,96,0.00,,,0.00,meteohub,2013-02-03 06:09:00,
2013-02-03 01:14:00,20.3,19.4,29.94,NE,42,0.0,6.0,96,0.00,,,0.00,meteohub,2013-02-03 06:14:00,
2013-02-03 01:19:00,20.3,19.4,29.94,NE,42,0.0,5.0,96,0.00,,,0.00,meteohub,2013-02-03 06:19:00,
2013-02-03 01:24:00,20.3,19.4,29.94,NE,42,0.0,4.0,96,0.00,,,0.00,meteohub,2013-02-03 06:24:00,
2013-02-03 01:29:00,20.1,19.2,29.94,NE,42,0.0,3.0,96,0.00,,,0.00,meteohub,2013-02-03 06:29:00,
2013-02-03 01:34:00,20.1,19.2,29.94,NE,42,0.0,0.0,96,0.00,,,0.00,meteohub,2013-02-03 06:34:00,
2013-02-03 01:39:00,20.1,19.2,29.94,NE,43,0.0,0.0,96,0.00,,,0.00,meteohub,2013-02-03 06:39:00,
2013-02-03 01:44:00,20.1,19.2,29.94,NE,43,0.0,0.0,96,0.00,,,0.00,meteohub,2013-02-03 06:44:00,
2013-02-03 01:49:00,20.1,19.2,29.94,NE,43,0.0,0.0,96,0.00,,,0.00,meteohub,2013-02-03 06:49:00,
2013-02-03 01:55:00,20.1,19.2,29.94,NE,43,0.0,0.0,96,0.00,,,0.00,meteohub,2013-02-03 06:55:00,
2013-02-03 02:00:00,20.1,19.2,29.94,NE,43,0.0,0.0,96,0.00,,,0.00,meteohub,2013-02-03 07:00:00,
2013-02-03 02:05:00,20.1,19.2,29.93,NE,43,0.0,0.0,96,0.00,,,0.00,meteohub,2013-02-03 07:05:00,
2013-02-03 02:10:00,20.1,19.2,29.93,NE,43,0.0,0.0,96,0.00,,,0.00,meteohub,2013-02-03 07:10:00,
2013-02-03 02:15:00,20.1,19.2,29.93,NE,43,0.0,0.0,96,0.00,,,0.00,meteohub,2013-02-03 07:15:00,
2013-02-03 02:20:00,20.1,18.9,29.93,NE,43,0.0,0.0,95,0.00,,,0.00,meteohub,2013-02-03 07:20:00,
2013-02-03 02:25:00,20.1,18.9,29.93,NE,43,0.0,0.0,95,0.00,,,0.00,meteohub,2013-02-03 07:25:00,
2013-02-03 02:30:00,20.1,18.9,29.93,NE,43,0.0,0.0,95,0.00,,,0.00,meteohub,2013-02-03 07:30:00,
2013-02-03 02:35:00,20.1,18.9,29.93,NE,43,0.0,0.0,95,0.00,,,0.00,meteohub,2013-02-03 07:35:00,
2013-02-03 02:40:00,20.1,18.9,29.93,NE,43,0.0,0.0,95,0.00,,,0.00,meteohub,2013-02-03 07:40:00,
2013-02-03 02:45:00,20.1,18.9,29.93,NE,43,0.0,0.0,95,0.00,,,0.00,meteohub,2013-02-03 07:45:00,
2013-02-03 02:50:00,20.1,18.9,29.93,NE,43,0.0,0.0,95,0.00,,,0.00,meteohub,2013-02-03 07:50:00,
2013-02-03 02:55:00,20.3,19.0,29.93,NE,43,0.0,0.0,95,0.00,,,0.00,meteohub,2013-02-03 07:55:00,
2013-02-03 03:00:00,20.1,18.7,29.92,NE,43,0.0,0.0,94,0.00,,,0.00,meteohub,2013-02-03 08:00:00,
2013-02-03 03:05:00,20.3,18.9,29.92,NE,43,0.0,0.0,94,0.00,,,0.00,meteohub,2013-02-03 08:05:00,
2013-02-03 03:10:00,20.3,18.9,29.92,NE,42,0.0,0.0,94,0.00,,,0.00,meteohub,2013-02-03 08:10:00,
2013-02-03 03:15:00,20.3,18.9,29.92,NE,43,0.0,0.0,94,0.00,,,0.00,meteohub,2013-02-03 08:15:00,
2013-02-03 03:20:00,20.5,19.0,29.91,NE,44,0.0,0.0,94,0.00,,,0.00,meteohub,2013-02-03 08:20:00,
2013-02-03 03:25:00,20.5,19.2,29.91,NE,48,0.0,0.0,95,0.00,,,0.00,meteohub,2013-02-03 08:25:00,
2013-02-03 03:30:00,20.5,19.2,29.91,NE,49,0.0,0.0,95,0.00,,,0.00,meteohub,2013-02-03 08:30:00,
2013-02-03 03:35:00,20.5,19.2,29.91,NE,51,1.0,2.0,95,0.00,,,0.00,meteohub,2013-02-03 08:35:00,
2013-02-03 03:40:00,20.3,19.0,29.91,NE,54,0.0,2.0,95,0.00,,,0.00,meteohub,2013-02-03 08:40:00,
2013-02-03 03:45:00,20.3,19.0,29.91,ENE,65,0.0,2.0,95,0.00,,,0.00,meteohub,2013-02-03 08:45:00,
2013-02-03 03:50:00,20.3,19.0,29.91,ENE,78,2.0,2.0,95,0.00,,,0.00,meteohub,2013-02-03 08:50:00,
2013-02-03 03:55:00,20.3,19.0,29.90,East,92,1.0,4.0,95,0.00,,,0.00,meteohub,2013-02-03 08:55:00,
2013-02-03 04:00:00,20.1,18.9,29.90,ESE,106,3.0,4.0,95,0.00,,,0.00,meteohub,2013-02-03 09:00:00,
2013-02-03 04:05:00,20.1,18.9,29.90,ESE,108,3.0,4.0,95,0.00,,,0.00,meteohub,2013-02-03 09:05:00,
2013-02-03 04:10:00,20.1,18.7,29.89,ESE,111,2.0,4.0,94,0.00,,,0.00,meteohub,2013-02-03 09:10:00,
2013-02-03 04:15:00,20.1,18.7,29.89,ESE,115,3.0,4.0,94,0.00,,,0.00,meteohub,2013-02-03 09:15:00,
2013-02-03 04:20:00,19.9,18.5,29.89,ESE,121,1.0,4.0,94,0.00,,,0.00,meteohub,2013-02-03 09:20:00,
2013-02-03 04:26:00,19.9,18.5,29.89,SE,141,3.0,4.0,94,0.00,,,0.00,meteohub,2013-02-03 09:26:00,
2013-02-03 04:31:00,19.9,18.5,29.89,SE,144,1.0,6.0,94,0.00,,,0.00,meteohub,2013-02-03 09:31:00,
2013-02-03 04:36:00,19.9,18.3,29.89,SE,145,2.0,6.0,93,0.00,,,0.00,meteohub,2013-02-03 09:36:00,
2013-02-03 04:41:00,19.9,18.3,29.89,SSE,147,2.0,6.0,93,0.00,,,0.00,meteohub,2013-02-03 09:41:00,
2013-02-03 04:46:00,19.9,18.3,29.89,SSE,149,3.0,4.0,93,0.00,,,0.00,meteohub,2013-02-03 09:46:00,
2013-02-03 04:51:00,19.9,18.3,29.88,SSE,149,2.0,4.0,93,0.00,,,0.00,meteohub,2013-02-03 09:51:00,
2013-02-03 04:56:00,19.8,18.1,29.88,SSE,148,3.0,4.0,93,0.00,,,0.00,meteohub,2013-02-03 09:56:00,
2013-02-03 05:01:00,19.8,18.1,29.88,SSE,150,2.0,6.0,93,0.00,,,0.00,meteohub,2013-02-03 10:01:00,
2013-02-03 05:06:00,19.8,17.8,29.88,SSE,150,5.0,6.0,92,0.00,,,0.00,meteohub,2013-02-03 10:06:00,
2013-02-03 05:11:00,19.8,17.8,29.88,SSE,150,6.0,6.0,92,0.00,,,0.00,meteohub,2013-02-03 10:11:00,
2013-02-03 05:16:00,19.8,17.8,29.88,SSE,153,5.0,8.0,92,0.00,,,0.00,meteohub,2013-02-03 10:16:00,
2013-02-03 05:21:00,19.8,17.8,29.88,SSE,155,6.0,8.0,92,0.00,,,0.00,meteohub,2013-02-03 10:21:00,
2013-02-03 05:26:00,19.8,17.8,29.87,SSE,161,5.0,8.0,92,0.00,,,0.00,meteohub,2013-02-03 10:26:00,
2013-02-03 05:31:00,19.8,17.8,29.88,SSE,150,3.0,8.0,92,0.00,,,0.00,meteohub,2013-02-03 10:31:00,
2013-02-03 05:36:00,19.8,17.6,29.88,SSE,148,6.0,8.0,91,0.00,,,0.00,meteohub,2013-02-03 10:36:00,
2013-02-03 05:41:00,19.8,17.6,29.87,SSE,149,6.0,9.0,91,0.00,,,0.00,meteohub,2013-02-03 10:41:00,
2013-02-03 05:46:00,19.8,17.6,29.87,SSE,150,6.0,9.0,91,0.00,,,0.00,meteohub,2013-02-03 10:46:00,
2013-02-03 05:51:00,19.8,17.6,29.87,SSE,149,4.0,9.0,91,0.00,,,0.00,meteohub,2013-02-03 10:51:00,
2013-02-03 05:56:00,19.8,17.6,29.87,SSE,150,6.0,9.0,91,0.00,,,0.00,meteohub,2013-02-03 10:56:00,
2013-02-03 06:01:00,19.8,17.6,29.87,SSE,149,4.0,7.0,91,0.00,,,0.00,meteohub,2013-02-03 11:01:00,
2013-02-03 06:06:00,19.6,17.4,29.86,SSE,148,4.0,8.0,91,0.00,,,0.00,meteohub,2013-02-03 11:06:00,
2013-02-03 06:11:00,19.8,17.2,29.86,SSE,156,6.0,10.0,90,0.00,,,0.00,meteohub,2013-02-03 11:11:00,
2013-02-03 06:17:00,19.8,17.2,29.86,SSE,149,5.0,10.0,90,0.00,,,0.00,meteohub,2013-02-03 11:17:00,
2013-02-03 06:22:00,19.8,17.2,29.86,SE,140,4.0,10.0,90,0.00,,,0.00,meteohub,2013-02-03 11:22:00,
2013-02-03 06:27:00,19.8,17.2,29.86,SSE,153,7.0,8.0,90,0.00,,,0.00,meteohub,2013-02-03 11:27:00,
2013-02-03 06:32:00,19.8,17.2,29.86,SSE,151,3.0,7.0,90,0.00,,,0.00,meteohub,2013-02-03 11:32:00,
2013-02-03 06:37:00,19.8,17.2,29.86,SSE,150,2.0,7.0,90,0.00,,,0.00,meteohub,2013-02-03 11:37:00,
2013-02-03 06:42:00,19.8,17.2,29.86,SSE,149,5.0,7.0,90,0.00,,,0.00,meteohub,2013-02-03 11:42:00,
2013-02-03 06:47:00,19.8,17.2,29.86,SSE,150,6.0,6.0,90,0.00,,,0.00,meteohub,2013-02-03 11:47:00,
2013-02-03 06:52:00,19.8,17.2,29.86,SSE,150,6.0,7.0,90,0.00,,,0.00,meteohub,2013-02-03 11:52:00,
2013-02-03 06:57:00,19.8,17.2,29.86,SSE,150,2.0,7.0,90,0.00,,,0.00,meteohub,2013-02-03 11:57:00,
2013-02-03 07:02:00,19.8,17.2,29.86,SSE,154,4.0,7.0,90,0.00,,,0.00,meteohub,2013-02-03 12:02:00,
2013-02-03 07:07:00,19.8,17.2,29.86,SE,141,4.0,7.0,90,0.00,,,0.00,meteohub,2013-02-03 12:07:00,
2013-02-03 07:12:00,19.8,17.2,29.86,SE,137,5.0,7.0,90,0.00,,,0.00,meteohub,2013-02-03 12:12:00,
2013-02-03 07:17:00,19.8,17.2,29.86,SE,138,4.0,7.0,90,0.00,,,0.00,meteohub,2013-02-03 12:17:00,
2013-02-03 07:22:00,19.8,17.2,29.86,SE,144,5.0,7.0,90,0.00,,,0.00,meteohub,2013-02-03 12:22:00,
2013-02-03 07:27:00,19.8,17.1,29.86,SE,142,7.0,10.0,89,0.00,,,0.00,meteohub,2013-02-03 12:27:00,
2013-02-03 07:32:00,19.8,17.1,29.86,SE,146,4.0,10.0,89,0.00,,,0.00,meteohub,2013-02-03 12:32:00,
2013-02-03 07:37:00,19.8,17.1,29.86,SSE,148,2.0,10.0,89,0.00,,,0.00,meteohub,2013-02-03 12:37:00,
2013-02-03 07:42:00,19.8,17.1,29.86,SE,144,5.0,9.0,89,0.00,,,0.00,meteohub,2013-02-03 12:42:00,
2013-02-03 07:47:00,19.8,17.1,29.86,SSE,151,5.0,9.0,89,0.00,,,0.00,meteohub,2013-02-03 12:47:00,
2013-02-03 07:52:00,19.8,17.1,29.86,SE,139,3.0,9.0,89,0.00,,,0.00,meteohub,2013-02-03 12:52:00,
2013-02-03 07:57:00,19.8,17.1,29.86,SE,142,5.0,9.0,89,0.00,,,0.00,meteohub,2013-02-03 12:57:00,
2013-02-03 08:02:00,19.8,17.1,29.86,SE,142,4.0,9.0,89,0.00,,,0.00,meteohub,2013-02-03 13:02:00,
2013-02-03 08:07:00,19.9,17.2,29.86,SE,144,5.0,9.0,89,0.00,,,0.00,meteohub,2013-02-03 13:07:00,
2013-02-03 08:12:00,19.9,17.2,29.86,SE,146,4.0,9.0,89,0.00,,,0.00,meteohub,2013-02-03 13:12:00,
2013-02-03 08:17:00,20.1,17.4,29.86,SSE,148,4.0,8.0,89,0.00,,,0.00,meteohub,2013-02-03 13:17:00,
2013-02-03 08:22:00,20.1,17.1,29.86,SE,139,6.0,7.0,88,0.00,,,0.00,meteohub,2013-02-03 13:22:00,
2013-02-03 08:27:00,20.1,17.1,29.86,SE,141,5.0,9.0,88,0.00,,,0.00,meteohub,2013-02-03 13:27:00,
2013-02-03 08:32:00,20.1,17.1,29.86,SE,140,4.0,9.0,88,0.00,,,0.00,meteohub,2013-02-03 13:32:00,
2013-02-03 08:37:00,20.3,17.2,29.86,SE,132,2.0,8.0,88,0.00,,,0.00,meteohub,2013-02-03 13:37:00,
2013-02-03 08:42:00,20.3,17.6,29.85,SE,134,4.0,6.0,89,0.00,,,0.00,meteohub,2013-02-03 13:42:00,
2013-02-03 08:47:00,20.5,17.8,29.85,SE,136,2.0,5.0,89,0.00,,,0.00,meteohub,2013-02-03 13:47:00,
2013-02-03 08:52:00,20.5,17.8,29.85,SE,142,2.0,7.0,89,0.00,,,0.00,meteohub,2013-02-03 13:52:00,
2013-02-03 08:57:00,20.3,17.6,29.85,SE,144,3.0,7.0,89,0.00,,,0.00,meteohub,2013-02-03 13:57:00,
2013-02-03 09:02:00,20.3,17.6,29.85,SE,139,4.0,7.0,89,0.00,,,0.00,meteohub,2013-02-03 14:02:00,
2013-02-03 09:07:00,20.3,17.6,29.85,SE,140,5.0,7.0,89,0.00,,,0.00,meteohub,2013-02-03 14:07:00,
2013-02-03 09:12:00,20.1,17.4,29.85,SSE,153,6.0,7.0,89,0.00,,,0.00,meteohub,2013-02-03 14:12:00,
2013-02-03 09:17:00,20.1,17.4,29.85,SSE,155,3.0,9.0,89,0.00,,,0.00,meteohub,2013-02-03 14:17:00,
2013-02-03 09:22:00,20.1,17.6,29.85,SE,144,2.0,9.0,90,0.00,,,0.00,meteohub,2013-02-03 14:22:00,
2013-02-03 09:27:00,20.1,17.6,29.85,SE,133,4.0,9.0,90,0.00,,,0.00,meteohub,2013-02-03 14:27:00,
2013-02-03 09:32:00,20.1,17.6,29.84,SE,136,2.0,7.0,90,0.00,,,0.00,meteohub,2013-02-03 14:32:00,
2013-02-03 09:37:00,20.1,18.0,29.84,SE,135,1.0,7.0,91,0.00,,,0.00,meteohub,2013-02-03 14:37:00,
2013-02-03 09:42:00,20.3,18.1,29.84,SE,136,3.0,7.0,91,0.00,,,0.00,meteohub,2013-02-03 14:42:00,
2013-02-03 09:47:00,20.5,18.3,29.84,SE,136,3.0,6.0,91,0.00,,,0.00,meteohub,2013-02-03 14:47:00,
2013-02-03 09:52:00,20.5,18.3,29.84,SE,136,2.0,6.0,91,0.00,,,0.00,meteohub,2013-02-03 14:52:00,
2013-02-03 09:57:00,20.7,18.7,29.84,SE,138,4.0,6.0,92,0.00,,,0.00,meteohub,2013-02-03 14:57:00,
2013-02-03 10:02:00,20.7,18.7,29.84,SSE,161,0.0,6.0,92,0.00,,,0.00,meteohub,2013-02-03 15:02:00,
2013-02-03 10:07:00,20.8,18.9,29.83,SSE,162,0.0,7.0,92,0.00,,,0.00,meteohub,2013-02-03 15:07:00,
2013-02-03 10:12:00,21.0,19.0,29.83,SW,233,6.0,7.0,92,0.00,,,0.00,meteohub,2013-02-03 15:12:00,
2013-02-03 10:17:00,21.2,19.2,29.83,SW,233,10.0,10.0,92,0.00,,,0.00,meteohub,2013-02-03 15:17:00,
2013-02-03 10:22:00,21.2,19.0,29.83,WSW,252,16.0,16.0,91,0.00,,,0.00,meteohub,2013-02-03 15:22:00,
2013-02-03 10:27:00,21.0,18.3,29.83,WSW,250,8.0,16.0,89,0.00,,,0.00,meteohub,2013-02-03 15:27:00,
2013-02-03 10:32:00,21.0,18.0,29.83,WSW,244,7.0,16.0,88,0.00,,,0.00,meteohub,2013-02-03 15:32:00,
2013-02-03 10:37:00,21.0,17.8,29.83,WSW,244,13.0,17.0,87,0.00,,,0.00,meteohub,2013-02-03 15:37:00,
2013-02-03 10:42:00,21.2,17.6,29.83,SW,227,10.0,17.0,86,0.00,,,0.00,meteohub,2013-02-03 15:42:00,
2013-02-03 10:47:00,21.4,18.1,29.83,SW,225,9.0,17.0,87,0.00,,,0.00,meteohub,2013-02-03 15:47:00,
2013-02-03 10:52:00,21.6,18.3,29.83,SW,225,11.0,17.0,87,0.00,,,0.00,meteohub,2013-02-03 15:52:00,
2013-02-03 10:57:00,21.7,18.1,29.83,West,261,10.0,13.0,86,0.00,,,0.00,meteohub,2013-02-03 15:57:00,
2013-02-03 11:02:00,21.7,18.1,29.83,WSW,254,14.0,14.0,86,0.00,,,0.00,meteohub,2013-02-03 16:02:00,
2013-02-03 11:07:00,21.9,17.8,29.83,West,259,16.0,16.0,84,0.00,,,0.00,meteohub,2013-02-03 16:07:00,
2013-02-03 11:12:00,22.1,17.8,29.82,WSW,241,8.0,17.0,83,0.00,,,0.00,meteohub,2013-02-03 16:12:00,
2013-02-03 11:17:00,21.9,17.6,29.83,SW,236,18.0,18.0,83,0.00,,,0.00,meteohub,2013-02-03 16:17:00,
2013-02-03 11:23:00,21.7,17.1,29.83,SW,233,12.0,18.0,82,0.00,,,0.00,meteohub,2013-02-03 16:23:00,
2013-02-03 11:28:00,21.7,17.6,29.82,WSW,240,11.0,18.0,84,0.00,,,0.00,meteohub,2013-02-03 16:28:00,
2013-02-03 11:33:00,21.6,17.8,29.82,WSW,256,10.0,18.0,85,0.00,,,0.00,meteohub,2013-02-03 16:33:00,
2013-02-03 11:38:00,21.6,18.0,29.83,West,259,10.0,17.0,86,0.00,,,0.00,meteohub,2013-02-03 16:38:00,
2013-02-03 11:43:00,21.7,17.6,29.82,WSW,238,15.0,15.0,84,0.00,,,0.00,meteohub,2013-02-03 16:43:00,
2013-02-03 11:48:00,21.9,17.2,29.82,WSW,248,11.0,17.0,82,0.00,,,0.00,meteohub,2013-02-03 16:48:00,
2013-02-03 11:53:00,22.1,17.2,29.82,WSW,243,9.0,17.0,81,0.00,,,0.00,meteohub,2013-02-03 16:53:00,
2013-02-03 11:58:00,22.3,17.4,29.82,WSW,237,14.0,17.0,81,0.00,,,0.00,meteohub,2013-02-03 16:58:00,
2013-02-03 12:03:00,22.3,17.1,29.82,WSW,254,12.0,15.0,80,0.00,,,0.00,meteohub,2013-02-03 17:03:00,
2013-02-03 12:08:00,22.3,17.1,29.82,WSW,244,9.0,16.0,80,0.00,,,0.00,meteohub,2013-02-03 17:08:00,
2013-02-03 12:13:00,22.3,16.7,29.81,SW,222,6.0,16.0,79,0.00,,,0.00,meteohub,2013-02-03 17:13:00,
2013-02-03 12:19:00,22.5,17.2,29.81,WSW,244,12.0,16.0,80,0.00,,,0.00,meteohub,2013-02-03 17:19:00,
2013-02-03 12:24:00,22.3,17.4,29.81,WSW,248,13.0,16.0,81,0.00,,,0.00,meteohub,2013-02-03 17:24:00,
2013-02-03 12:29:00,21.6,17.2,29.81,WSW,241,15.0,21.0,83,0.00,,,0.00,meteohub,2013-02-03 17:29:00,
2013-02-03 12:34:00,21.2,17.4,29.81,SW,232,13.0,21.0,85,0.00,,,0.00,meteohub,2013-02-03 17:34:00,
2013-02-03 12:39:00,20.7,17.1,29.81,SW,231,7.0,21.0,86,0.00,,,0.00,meteohub,2013-02-03 17:39:00,
2013-02-03 12:44:00,20.7,17.6,29.81,SW,223,10.0,20.0,88,0.00,,,0.00,meteohub,2013-02-03 17:44:00,
2013-02-03 12:49:00,20.7,18.0,29.80,WSW,242,0.0,18.0,89,0.00,,,0.00,meteohub,2013-02-03 17:49:00,
2013-02-03 12:54:00,20.8,18.3,29.80,SW,217,6.0,16.0,90,0.00,,,0.00,meteohub,2013-02-03 17:54:00,
2013-02-03 12:59:00,20.7,18.1,29.80,WSW,238,12.0,16.0,90,0.00,,,0.00,meteohub,2013-02-03 17:59:00,
2013-02-03 13:04:00,20.7,18.1,29.80,SW,227,6.0,14.0,90,0.00,,,0.00,meteohub,2013-02-03 18:04:00,
2013-02-03 13:09:00,20.7,18.1,29.79,SW,226,9.0,14.0,90,0.00,,,0.00,meteohub,2013-02-03 18:09:00,
2013-02-03 13:14:00,20.8,18.1,29.79,SW,228,6.0,14.0,89,0.00,,,0.00,meteohub,2013-02-03 18:14:00,
2013-02-03 13:19:00,21.0,18.3,29.79,WSW,245,7.0,13.0,89,0.00,,,0.00,meteohub,2013-02-03 18:19:00,
2013-02-03 13:24:00,21.0,18.0,29.79,West,265,11.0,13.0,88,0.00,,,0.00,meteohub,2013-02-03 18:24:00,
2013-02-03 13:29:00,20.8,17.8,29.79,West,263,12.0,12.0,88,0.00,,,0.00,meteohub,2013-02-03 18:29:00,
2013-02-03 13:34:00,20.8,17.8,29.80,West,269,12.0,13.0,88,0.00,,,0.00,meteohub,2013-02-03 18:34:00,
2013-02-03 13:40:00,20.8,18.1,29.80,WSW,256,15.0,16.0,89,0.00,,,0.00,meteohub,2013-02-03 18:40:00,
2013-02-03 13:45:00,20.7,18.1,29.80,West,262,15.0,18.0,90,0.00,,,0.00,meteohub,2013-02-03 18:45:00,
2013-02-03 13:50:00,20.8,18.7,29.79,West,267,11.0,18.0,91,0.00,,,0.00,meteohub,2013-02-03 18:50:00,
2013-02-03 13:55:00,20.8,18.7,29.80,West,262,16.0,18.0,91,0.00,,,0.00,meteohub,2013-02-03 18:55:00,
2013-02-03 14:00:00,20.8,18.9,29.80,West,263,10.0,18.0,92,0.00,,,0.00,meteohub,2013-02-03 19:00:00,
2013-02-03 14:05:00,20.8,18.9,29.80,West,265,13.0,18.0,92,0.00,,,0.00,meteohub,2013-02-03 19:05:00,
2013-02-03 14:10:00,20.7,19.0,29.81,WNW,289,26.0,31.0,93,0.00,,,0.00,meteohub,2013-02-03 19:10:00,
2013-02-03 14:15:00,19.8,18.1,29.81,WNW,286,27.0,31.0,93,0.00,,,0.00,meteohub,2013-02-03 19:15:00,
2013-02-03 14:20:00,19.8,18.3,29.81,NW,308,18.0,31.0,94,0.00,,,0.00,meteohub,2013-02-03 19:20:00,
2013-02-03 14:25:00,19.8,18.3,29.81,WNW,291,20.0,30.0,94,0.00,,,0.00,meteohub,2013-02-03 19:25:00,
2013-02-03 14:30:00,19.6,18.3,29.82,WNW,293,17.0,29.0,95,0.00,,,0.00,meteohub,2013-02-03 19:30:00,
2013-02-03 14:35:00,19.6,18.3,29.82,WNW,296,17.0,27.0,95,0.00,,,0.00,meteohub,2013-02-03 19:35:00,
2013-02-03 14:40:00,19.8,18.5,29.82,WNW,300,15.0,27.0,95,0.00,,,0.00,meteohub,2013-02-03 19:40:00,
2013-02-03 14:45:00,19.8,18.5,29.82,WNW,294,21.0,25.0,95,0.00,,,0.00,meteohub,2013-02-03 19:45:00,
2013-02-03 14:51:00,19.8,18.5,29.83,NW,311,20.0,23.0,95,0.00,,,0.00,meteohub,2013-02-03 19:51:00,
2013-02-03 14:56:00,19.8,18.5,29.83,WNW,294,14.0,23.0,95,0.00,,,0.00,meteohub,2013-02-03 19:56:00,
2013-02-03 15:01:00,19.8,18.5,29.83,WNW,293,17.0,23.0,95,0.00,,,0.00,meteohub,2013-02-03 20:01:00,
2013-02-03 15:06:00,19.8,18.5,29.83,WNW,288,18.0,22.0,95,0.00,,,0.00,meteohub,2013-02-03 20:06:00,
2013-02-03 15:11:00,19.8,18.5,29.83,WNW,286,17.0,22.0,95,0.00,,,0.00,meteohub,2013-02-03 20:11:00,
2013-02-03 15:16:00,19.8,18.5,29.83,WNW,296,16.0,22.0,95,0.00,,,0.00,meteohub,2013-02-03 20:16:00,
2013-02-03 15:21:00,19.8,18.5,29.83,WNW,286,14.0,21.0,95,0.00,,,0.00,meteohub,2013-02-03 20:21:00,
2013-02-03 15:26:00,19.8,18.3,29.83,West,281,18.0,23.0,94,0.00,,,0.00,meteohub,2013-02-03 20:26:00,
2013-02-03 15:31:00,19.8,18.3,29.83,West,275,17.0,23.0,94,0.00,,,0.00,meteohub,2013-02-03 20:31:00,
2013-02-03 15:36:00,19.8,18.3,29.83,WNW,295,18.0,21.0,94,0.00,,,0.00,meteohub,2013-02-03 20:36:00,
2013-02-03 15:41:00,19.6,18.1,29.83,West,281,18.0,21.0,94,0.00,,,0.00,meteohub,2013-02-03 20:41:00,
2013-02-03 15:46:00,19.8,18.3,29.84,WNW,299,18.0,21.0,94,0.00,,,0.00,meteohub,2013-02-03 20:46:00,
2013-02-03 15:51:00,19.8,18.3,29.84,West,269,16.0,25.0,94,0.00,,,0.00,meteohub,2013-02-03 20:51:00,
2013-02-03 15:57:00,19.8,18.1,29.84,West,275,22.0,25.0,93,0.00,,,0.00,meteohub,2013-02-03 20:57:00,
2013-02-03 16:02:00,19.8,18.1,29.84,West,279,18.0,26.0,93,0.00,,,0.00,meteohub,2013-02-03 21:02:00,
2013-02-03 16:07:00,19.8,17.6,29.84,West,265,19.0,26.0,91,0.00,,,0.00,meteohub,2013-02-03 21:07:00,
2013-02-03 16:12:00,19.8,17.1,29.84,West,263,21.0,26.0,89,0.00,,,0.00,meteohub,2013-02-03 21:12:00,
2013-02-03 16:17:00,19.9,16.9,29.84,West,270,20.0,27.0,88,0.00,,,0.00,meteohub,2013-02-03 21:17:00,
2013-02-03 16:22:00,19.9,16.7,29.84,West,278,20.0,27.0,87,0.00,,,0.00,meteohub,2013-02-03 21:22:00,
2013-02-03 16:27:00,19.9,16.5,29.84,WSW,258,17.0,27.0,86,0.00,,,0.00,meteohub,2013-02-03 21:27:00,
2013-02-03 16:32:00,19.8,16.3,29.84,WSW,257,21.0,26.0,86,0.00,,,0.00,meteohub,2013-02-03 21:32:00,
2013-02-03 16:37:00,19.8,15.8,29.84,West,270,22.0,28.0,84,0.00,,,0.00,meteohub,2013-02-03 21:37:00,
2013-02-03 16:42:00,19.8,15.8,29.84,West,261,23.0,28.0,84,0.00,,,0.00,meteohub,2013-02-03 21:42:00,
2013-02-03 16:47:00,19.8,15.4,29.84,WSW,257,23.0,28.0,83,0.00,,,0.00,meteohub,2013-02-03 21:47:00,
2013-02-03 16:52:00,19.8,15.8,29.84,West,263,24.0,28.0,84,0.00,,,0.00,meteohub,2013-02-03 21:52:00,
2013-02-03 16:57:00,19.6,15.6,29.85,West,262,23.0,28.0,84,0.00,,,0.00,meteohub,2013-02-03 21:57:00,
2013-02-03 17:02:00,19.8,15.8,29.85,West,259,21.0,30.0,84,0.00,,,0.00,meteohub,2013-02-03 22:02:00,
2013-02-03 17:07:00,19.8,16.0,29.85,WSW,255,19.0,30.0,85,0.00,,,0.00,meteohub,2013-02-03 22:07:00,
2013-02-03 17:12:00,19.8,15.4,29.85,WSW,253,17.0,30.0,83,0.00,,,0.00,meteohub,2013-02-03 22:12:00,
2013-02-03 17:17:00,19.8,15.1,29.85,WSW,258,26.0,29.0,82,0.00,,,0.00,meteohub,2013-02-03 22:17:00,
2013-02-03 17:22:00,19.9,15.6,29.85,West,260,27.0,28.0,83,0.00,,,0.00,meteohub,2013-02-03 22:22:00,
2013-02-03 17:27:00,19.9,16.0,29.86,West,270,20.0,29.0,84,0.00,,,0.00,meteohub,2013-02-03 22:27:00,
2013-02-03 17:32:00,19.9,16.0,29.86,West,265,21.0,29.0,84,0.00,,,0.00,meteohub,2013-02-03 22:32:00,
2013-02-03 17:37:00,20.1,16.0,29.86,West,260,25.0,29.0,84,0.00,,,0.00,meteohub,2013-02-03 22:37:00,
2013-02-03 17:42:00,20.1,16.3,29.86,West,267,22.0,30.0,85,0.00,,,0.00,meteohub,2013-02-03 22:42:00,
2013-02-03 17:47:00,20.1,16.7,29.86,West,265,22.0,30.0,86,0.00,,,0.00,meteohub,2013-02-03 22:47:00,
2013-02-03 17:52:00,20.1,16.9,29.86,WSW,258,26.0,30.0,87,0.00,,,0.00,meteohub,2013-02-03 22:52:00,
2013-02-03 17:57:00,20.1,16.9,29.86,West,265,25.0,30.0,87,0.00,,,0.00,meteohub,2013-02-03 22:57:00,
2013-02-03 18:02:00,20.7,17.6,29.86,WSW,255,25.0,29.0,88,0.00,,,0.00,meteohub,2013-02-03 23:02:00,
2013-02-03 18:07:00,20.8,17.2,29.86,West,262,26.0,29.0,86,0.00,,,0.00,meteohub,2013-02-03 23:07:00,
2013-02-03 18:12:00,21.0,17.4,29.86,West,269,21.0,33.0,86,0.00,,,0.00,meteohub,2013-02-03 23:12:00,
2013-02-03 18:17:00,20.3,16.2,29.87,SW,233,16.0,33.0,84,0.00,,,0.00,meteohub,2013-02-03 23:17:00,
2013-02-03 18:22:00,19.6,16.2,29.86,WSW,237,14.0,33.0,86,0.00,,,0.00,meteohub,2013-02-03 23:22:00,
2013-02-03 18:27:00,19.0,15.8,29.87,SW,230,14.0,32.0,87,0.00,,,0.00,meteohub,2013-02-03 23:27:00,
2013-02-03 18:32:00,18.7,16.0,29.86,SSW,213,14.0,18.0,89,0.00,,,0.00,meteohub,2013-02-03 23:32:00,
2013-02-03 18:37:00,18.3,15.8,29.87,SSW,205,12.0,18.0,90,0.00,,,0.00,meteohub,2013-02-03 23:37:00,
2013-02-03 18:42:00,18.1,16.0,29.87,WSW,238,9.0,17.0,91,0.00,,,0.00,meteohub,2013-02-03 23:42:00,
2013-02-03 18:47:00,18.0,16.0,29.88,SSW,210,14.0,17.0,92,0.00,,,0.00,meteohub,2013-02-03 23:47:00,
2013-02-03 18:52:00,17.8,16.2,29.88,SW,223,8.0,17.0,93,0.00,,,0.00,meteohub,2013-02-03 23:52:00,
2013-02-03 18:57:00,17.8,16.2,29.88,SW,225,13.0,17.0,93,0.00,,,0.00,meteohub,2013-02-03 23:57:00,
2013-02-03 19:02:00,17.8,16.3,29.87,SW,228,13.0,17.0,94,0.00,,,0.00,meteohub,2013-02-04 00:02:00,
2013-02-03 19:07:00,17.8,16.3,29.88,SW,216,12.0,16.0,94,0.00,,,0.00,meteohub,2013-02-04 00:07:00,
2013-02-03 19:12:00,17.8,16.3,29.88,SW,221,15.0,17.0,94,0.00,,,0.00,meteohub,2013-02-04 00:12:00,
2013-02-03 19:17:00,18.0,16.5,29.88,SW,215,11.0,21.0,94,0.00,,,0.00,meteohub,2013-02-04 00:17:00,
2013-02-03 19:22:00,18.1,16.7,29.88,WSW,238,13.0,21.0,94,0.00,,,0.00,meteohub,2013-02-04 00:22:00,
2013-02-03 19:27:00,18.1,16.9,29.88,SW,223,13.0,21.0,95,0.00,,,0.00,meteohub,2013-02-04 00:27:00,
2013-02-03 19:32:00,18.1,16.9,29.88,WSW,248,15.0,22.0,95,0.00,,,0.00,meteohub,2013-02-04 00:32:00,
2013-02-03 19:37:00,18.3,17.1,29.88,WSW,247,18.0,22.0,95,0.00,,,0.00,meteohub,2013-02-04 00:37:00,
2013-02-03 19:42:00,18.5,17.2,29.88,SW,225,14.0,22.0,95,0.00,,,0.00,meteohub,2013-02-04 00:42:00,
2013-02-03 19:47:00,18.7,17.4,29.89,WSW,249,14.0,21.0,95,0.00,,,0.00,meteohub,2013-02-04 00:47:00,
2013-02-03 19:52:00,18.7,17.4,29.89,WSW,238,12.0,21.0,95,0.00,,,0.00,meteohub,2013-02-04 00:52:00,
2013-02-03 19:57:00,18.5,17.2,29.89,WSW,239,15.0,21.0,95,0.00,,,0.00,meteohub,2013-02-04 00:57:00,
2013-02-03 20:03:00,18.5,17.2,29.89,WSW,239,15.0,21.0,95,0.00,,,0.00,meteohub,2013-02-04 01:03:00,
2013-02-03 20:08:00,18.7,17.4,29.89,SW,236,15.0,24.0,95,0.00,,,0.00,meteohub,2013-02-04 01:08:00,
2013-02-03 20:13:00,18.5,17.2,29.89,WSW,246,14.0,24.0,95,0.00,,,0.00,meteohub,2013-02-04 01:13:00,
2013-02-03 20:18:00,18.5,17.2,29.88,SW,227,19.0,24.0,95,0.00,,,0.00,meteohub,2013-02-04 01:18:00,
2013-02-03 20:23:00,18.5,17.2,29.88,SW,236,12.0,20.0,95,0.00,,,0.00,meteohub,2013-02-04 01:23:00,
2013-02-03 20:28:00,18.5,17.2,29.89,WSW,240,19.0,25.0,95,0.00,,,0.00,meteohub,2013-02-04 01:28:00,
2013-02-03 20:33:00,18.5,17.2,29.89,SW,236,16.0,25.0,95,0.00,,,0.00,meteohub,2013-02-04 01:33:00,
2013-02-03 20:38:00,18.5,17.2,29.89,SW,228,18.0,25.0,95,0.00,,,0.00,meteohub,2013-02-04 01:38:00,
2013-02-03 20:43:00,18.5,17.2,29.89,WSW,239,18.0,23.0,95,0.00,,,0.00,meteohub,2013-02-04 01:43:00,
2013-02-03 20:48:00,18.5,17.2,29.89,SW,224,15.0,23.0,95,0.00,,,0.00,meteohub,2013-02-04 01:48:00,
2013-02-03 20:53:00,18.5,17.2,29.89,SW,231,20.0,22.0,95,0.00,,,0.00,meteohub,2013-02-04 01:53:00,
2013-02-03 20:58:00,18.5,17.2,29.89,SW,228,19.0,24.0,95,0.00,,,0.00,meteohub,2013-02-04 01:58:00,
2013-02-03 21:03:00,18.7,17.4,29.89,SW,228,17.0,24.0,95,0.00,,,0.00,meteohub,2013-02-04 02:03:00,
2013-02-03 21:08:00,18.7,17.4,29.89,SW,234,16.0,25.0,95,0.00,,,0.00,meteohub,2013-02-04 02:08:00,
2013-02-03 21:13:00,18.7,17.4,29.89,SW,224,19.0,25.0,95,0.00,,,0.00,meteohub,2013-02-04 02:13:00,
2013-02-03 21:19:00,18.5,17.2,29.89,SW,226,14.0,23.0,95,0.00,,,0.00,meteohub,2013-02-04 02:19:00,
2013-02-03 21:24:00,18.5,17.2,29.89,SW,227,12.0,24.0,95,0.00,,,0.00,meteohub,2013-02-04 02:24:00,
2013-02-03 21:29:00,18.5,17.2,29.89,SW,232,12.0,24.0,95,0.00,,,0.00,meteohub,2013-02-04 02:29:00,
2013-02-03 21:34:00,18.5,17.2,29.89,SW,223,15.0,24.0,95,0.00,,,0.00,meteohub,2013-02-04 02:34:00,
2013-02-03 21:39:00,18.5,17.2,29.89,SW,215,15.0,26.0,95,0.00,,,0.00,meteohub,2013-02-04 02:39:00,
2013-02-03 21:44:00,18.5,17.2,29.89,SW,233,15.0,26.0,95,0.00,,,0.00,meteohub,2013-02-04 02:44:00,
2013-02-03 21:49:00,18.3,17.1,29.89,SW,219,18.0,22.0,95,0.00,,,0.00,meteohub,2013-02-04 02:49:00,
2013-02-03 21:54:00,18.3,17.1,29.89,SW,219,14.0,22.0,95,0.00,,,0.00,meteohub,2013-02-04 02:54:00,
2013-02-03 21:59:00,18.3,17.1,29.89,WSW,237,17.0,23.0,95,0.00,,,0.00,meteohub,2013-02-04 02:59:00,
2013-02-03 22:04:00,18.3,17.1,29.89,SW,228,18.0,24.0,95,0.00,,,0.00,meteohub,2013-02-04 03:04:00,
2013-02-03 22:09:00,18.3,17.4,29.90,WSW,243,18.0,26.0,96,0.00,,,0.00,meteohub,2013-02-04 03:09:00,
2013-02-03 22:14:00,18.9,18.0,29.90,SW,232,20.0,26.0,96,0.00,,,0.00,meteohub,2013-02-04 03:14:00,
2013-02-03 22:19:00,19.2,18.3,29.91,WSW,246,17.0,30.0,96,0.00,,,0.00,meteohub,2013-02-04 03:19:00,
2013-02-03 22:24:00,19.6,18.7,29.91,WSW,252,15.0,30.0,96,0.00,,,0.00,meteohub,2013-02-04 03:24:00,
2013-02-03 22:29:00,20.1,19.2,29.92,West,265,14.0,33.0,96,0.00,,,0.00,meteohub,2013-02-04 03:29:00,
2013-02-03 22:35:00,20.8,19.9,29.91,WNW,301,15.0,33.0,96,0.00,,,0.00,meteohub,2013-02-04 03:35:00,
2013-02-03 22:40:00,21.0,19.6,29.92,NW,308,28.0,33.0,94,0.00,,,0.00,meteohub,2013-02-04 03:40:00,
2013-02-03 22:45:00,20.8,18.3,29.92,NW,306,26.0,28.0,90,0.00,,,0.00,meteohub,2013-02-04 03:45:00,
2013-02-03 22:50:00,20.8,17.8,29.92,NW,309,25.0,31.0,88,0.00,,,0.00,meteohub,2013-02-04 03:50:00,
2013-02-03 22:55:00,21.4,18.1,29.92,WNW,294,22.0,31.0,87,0.00,,,0.00,meteohub,2013-02-04 03:55:00,
2013-02-03 23:00:00,21.4,17.2,29.92,WNW,297,23.0,31.0,84,0.00,,,0.00,meteohub,2013-02-04 04:00:00,
2013-02-03 23:05:00,21.6,16.9,29.92,WNW,296,24.0,31.0,82,0.00,,,0.00,meteohub,2013-02-04 04:05:00,
2013-02-03 23:10:00,21.7,16.5,29.92,WNW,292,22.0,31.0,80,0.00,,,0.00,meteohub,2013-02-04 04:10:00,
2013-02-03 23:15:00,21.7,16.0,29.92,WNW,302,17.0,31.0,78,0.00,,,0.00,meteohub,2013-02-04 04:15:00,
2013-02-03 23:20:00,21.6,15.8,29.92,NW,304,22.0,30.0,78,0.00,,,0.00,meteohub,2013-02-04 04:20:00,
2013-02-03 23:25:00,21.7,15.6,29.93,NW,309,21.0,30.0,77,0.00,,,0.00,meteohub,2013-02-04 04:25:00,
2013-02-03 23:30:00,21.6,15.3,29.93,NW,307,25.0,32.0,76,0.00,,,0.00,meteohub,2013-02-04 04:30:00,
2013-02-03 23:35:00,21.7,15.6,29.93,NW,306,24.0,33.0,77,0.00,,,0.00,meteohub,2013-02-04 04:35:00,
2013-02-03 23:40:00,21.7,15.3,29.93,WNW,292,19.0,33.0,76,0.00,,,0.00,meteohub,2013-02-04 04:40:00,
2013-02-03 23:46:00,21.7,15.6,29.93,WNW,293,23.0,33.0,77,0.00,,,0.00,meteohub,2013-02-04 04:46:00,
2013-02-03 23:51:00,21.9,15.8,29.93,WNW,300,27.0,29.0,77,0.00,,,0.00,meteohub,2013-02-04 04:51:00,
2013-02-03 23:56:00,21.7,16.2,29.93,WNW,291,16.0,29.0,79,0.00,,,0.00,meteohub,2013-02-04 04:56:00,